TROPICS PATHFINDER (48901 NORAD) Tracking and Keplerian Element Data

This shows tracking and keplerian element data for the satellite.

Feedback or suggestion? Click here.




ElementValue
Catalog48901
NameTROPICS PATHFINDER
Epoch Orbit1286
Epoch Day261.91576112
Epoch Year2021
RAAN29.3975
Inclination97.516
Eccentricity0.0009474
Argument of Perigee327.0816
Mean Anonmoly32.9824
Mean Motion15.12420953
Decay Rate1.344E-05
L11 48901U 21059Y 21261.91576112 .00001344 00000-0 81070-4 0 9995
L22 48901 97.5160 29.3975 0009474 327.0816 32.9824 15.12420953 12865

Live tracking and technical data element details for TROPICS PATHFINDER (NORAD 48901). TROPICS PATHFINDER can be tracked NOW for your location showing map with azimuth and elevation plus other details from your city location.

Track the satellite on the map from your city or location and see movement details for azimuth, elevation, latitude, longitude, range, height, and movement on the map or in text.







IsCatalogInMostPopularTable: catalog: 48901, numindb: 13
Update: records affected: 1



GetName: 48901 TROPICS PATHFINDER

Hit Count: updated at: Fri, 24 Sep 2021 18:40:00 GMT